Location: Congrier
(47.8099°N, 1.1170°W)
Time: 17:43:08
(UTC+00:00)

Cosmos 44 - Pass Details

Date: 28 January 2023
Orbit: 582 x 777 km, 65.1° (Epoch: 25 March)

Event Time Altitude Azimuth Distance (km) Brightness Sun altitude
Rises 18:22:11 0° 219° (SW) 2,797 7.3 -14.1°
Reaches altitude 10° 18:24:23 10° 220° (SW) 1,909 6.3 -14.5°
Maximum altitude 18:28:40 81° 308° (NW) 614 3.0 -15.2°
Enters shadow 18:32:02 17° 35° (NE) 1,554 4.7 -15.7°
